Theta_e
342 346 350 351 350 350 350 348 347 345 344 343 342 341 340 340 341 341 341 343 345 343 343 345 343 342 340 339 338 338 338 337 337 338 338 341 342 343 344 345 345 345 347
344 346 348 350 351 350 350 349 348 344 344 343 341 340 340 340 340 340 340 342 343 340 344 345 341 340 339 337 336 336 336 336 335 336 338 337 338 339 341 341 344 345 346
344 346 347 348 350 350 351 349 348 347 343 342 341 339 339 339 339 339 338 340 341 337 343 342 341 338 337 335 335 335 335 335 334 336 336 332 334 337 338 338 339 342 344
344 346 347 346 349 351 350 350 348 346 342 341 339 338 338 337 337 337 337 338 339 338 342 341 339 336 335 334 334 334 334 333 335 335 331 331 331 335 335 335 336 337 339
344 346 347 346 349 350 350 349 347 346 342 340 338 336 335 335 335 335 336 336 336 337 339 340 336 334 333 333 333 333 332 332 334 331 331 332 331 333 335 333 333 333 335
344 346 344 347 350 350 349 348 347 345 342 339 337 335 333 332 331 331 332 334 335 335 335 335 331 328 329 330 331 330 329 331 332 331 330 332 330 334 335 334 332 334 333
344 346 347 346 348 349 348 346 346 344 341 338 336 334 332 330 328 328 328 329 330 330 330 329 326 323 323 326 327 327 325 329 329 330 331 331 331 333 334 334 333 332 332
344 346 346 340 342 344 345 345 344 344 341 338 337 335 333 331 331 331 328 327 326 326 326 325 323 321 321 323 324 324 323 327 326 327 327 330 334 336 336 336 335 335 333
344 345 345 345 342 337 340 341 342 342 340 339 339 338 335 335 335 333 333 330 328 326 324 322 321 320 320 321 323 322 323 325 324 325 325 326 330 331 333 332 333 332 333
343 344 344 344 344 344 346 334 337 338 338 338 336 333 331 331 331 331 329 331 330 328 325 322 320 319 320 321 321 321 323 324 323 323 323 325 330 330 329 328 328 329 329
340 343 344 344 344 344 345 339 333 333 333 332 331 327 326 331 331 331 327 328 328 327 326 324 321 319 319 319 319 321 322 323 325 326 326 327 325 325 326 329 327 325 324
335 338 343 344 344 344 342 341 342 341 338 335 333 330 330 331 332 329 323 323 325 324 322 321 318 316 318 319 318 318 317 319 319 318 319 323 323 326 328 325 323 325 325
335 335 337 341 343 344 342 343 344 342 339 336 333 332 329 325 326 325 325 323 322 318 320 319 318 317 317 317 316 314 313 314 313 312 315 320 321 324 324 323 323 322 321
333 332 333 338 342 344 343 343 343 339 341 336 335 331 328 325 324 322 323 321 321 320 318 318 316 315 314 313 311 309 309 310 310 309 310 315 318 320 321 320 319 319 318
330 329 329 332 340 342 342 342 340 335 337 338 335 331 328 325 321 320 320 318 311 313 314 316 313 312 310 307 304 302 303 303 304 304 306 307 310 313 316 317 318 318 316
331 328 327 328 336 337 339 341 340 335 335 334 332 331 331 325 321 322 314 313 307 308 309 312 311 309 305 300 296 296 295 295 296 298 300 300 304 308 312 315 315 314 314
329 327 324 327 332 331 331 333 335 333 332 331 330 330 328 323 318 317 310 309 302 303 306 307 308 306 300 296 294 294 293 293 293 292 293 294 297 302 307 309 308 309 310
325 322 322 321 324 325 324 323 321 320 320 321 327 325 323 319 316 309 303 304 301 303 303 303 306 302 298 295 293 292 292 292 291 291 291 291 292 295 298 297 301 303 306
323 320 319 320 321 318 317 315 313 311 310 308 311 317 317 313 309 309 301 298 302 302 302 303 300 299 296 293 292 291 291 291 291 290 289 290 290 291 291 291 292 296 301
320 319 319 318 319 315 311 309 307 305 304 306 304 304 307 307 305 304 297 296 302 300 298 298 296 295 293 292 289 289 290 290 290 290 289 288 289 289 289 288 288 289 294
315 314 315 315 315 314 308 306 306 304 301 301 305 301 301 301 301 300 296 297 302 297 297 295 294 292 290 292 290 288 288 288 288 288 289 288 287 288 288 287 286 287 288
311 312 313 313 312 313 313 310 305 301 298 297 298 302 300 299 297 297 295 295 295 295 294 293 292 291 291 294 293 290 286 286 286 286 287 286 286 287 286 285 285 285 286
308 309 310 312 311 312 313 306 300 294 293 293 293 293 297 295 296 294 294 293 293 295 293 294 293 291 290 292 295 294 289 288 284 286 285 285 285 286 286 285 284 284 285
307 309 309 310 309 310 307 306 303 301 298 299 295 294 292 292 291 291 290 291 291 293 294 293 293 296 294 290 289 286 289 291 287 281 285 284 285 284 285 285 284 283 284
306 306 308 309 307 304 303 303 303 302 301 298 296 293 290 290 289 289 288 288 289 290 291 291 290 292 295 292 291 288 287 287 289 287 281 282 284 284 284 284 284 284 284
305 304 307 307 306 302 301 300 301 302 296 295 294 290 288 287 287 286 286 287 288 286 288 289 289 291 293 292 290 288 288 288 286 286 284 283 283 283 284 284 283 283 283
Wind_Speed
9 11 9 10 11 12 15 15 13 13 14 15 14 14 15 15 15 16 15 14 14 17 16 19 19 19 19 19 20 20 20 19 19 19 21 21 21 21 23 22 20 19 19
13 12 10 10 12 12 14 13 12 13 14 15 15 15 15 16 16 15 15 13 15 17 17 18 19 18 19 19 19 20 19 19 17 11 12 19 20 20 22 23 22 21 23
13 12 13 10 12 13 14 12 12 13 14 15 15 16 16 16 16 15 16 12 15 16 15 18 18 18 18 19 18 19 18 18 14 10 12 15 18 22 22 22 22 22 23
13 12 13 11 13 13 13 12 13 14 14 15 15 15 15 16 16 16 15 14 17 14 17 18 18 18 18 18 18 18 18 17 11 10 13 15 16 22 22 23 23 24 23
12 11 12 11 13 13 12 11 13 14 14 15 15 15 16 16 16 16 16 15 17 16 16 17 19 17 17 18 18 17 17 14 10 16 15 15 14 19 23 23 22 23 21
12 12 13 12 13 13 12 12 13 14 14 14 15 15 15 16 16 16 16 16 16 16 17 17 18 18 18 17 18 17 15 12 12 14 15 18 15 21 22 23 23 21 21
13 11 13 11 12 13 13 13 14 15 14 14 15 15 15 16 16 16 16 16 16 16 17 17 19 18 18 17 17 17 16 12 14 14 15 14 13 18 21 21 22 22 23
12 12 12 10 10 11 12 13 13 15 15 15 15 15 15 16 16 16 16 16 16 16 17 18 18 18 18 18 18 18 15 10 13 15 15 12 18 22 24 21 24 23 22
13 12 11 12 12 10 11 12 13 14 14 14 14 14 13 13 13 14 14 15 16 16 17 18 18 18 18 19 18 18 14 11 14 12 14 11 18 21 21 23 25 24 27
12 12 12 12 12 12 12 12 13 12 13 13 13 13 11 11 11 12 11 14 16 16 17 17 18 19 19 19 18 15 10 12 13 13 12 11 22 25 22 21 23 23 25
10 13 12 13 12 12 11 12 13 14 12 12 10 10 15 10 11 10 12 14 17 16 17 18 19 19 20 19 18 12 11 10 14 11 9 20 23 22 21 23 25 24 23
15 12 13 13 12 12 8 11 11 12 11 9 9 9 4 9 8 11 12 15 15 15 17 18 17 13 9 9 8 11 9 13 12 12 9 22 21 22 24 24 23 24 26
15 10 10 12 12 12 10 7 6 7 8 8 11 9 8 7 8 7 7 7 8 7 7 8 8 7 10 8 9 9 11 11 10 11 15 21 21 22 23 23 25 24 24
15 13 9 8 10 13 9 9 8 6 7 8 10 9 7 5 7 6 5 6 6 5 8 7 6 10 12 12 12 12 12 10 8 10 15 19 22 23 23 24 23 24 24
16 13 10 9 10 9 11 9 8 9 7 8 10 10 7 6 6 6 6 5 5 5 6 8 9 9 11 12 12 13 13 13 14 9 9 22 23 22 21 21 23 24 24
15 14 11 10 9 6 5 9 7 8 10 8 7 8 12 7 6 7 5 6 5 5 4 7 10 10 10 11 12 13 13 12 12 11 10 13 22 21 21 24 24 23 23
14 13 12 10 9 8 7 6 6 5 7 7 7 10 9 10 9 10 6 7 6 5 7 7 10 11 11 11 13 12 11 13 11 11 9 8 12 21 23 25 24 21 22
14 15 12 8 9 7 5 4 3 3 3 2 6 7 10 10 11 9 7 8 7 7 5 7 9 11 11 11 9 10 10 10 12 11 10 8 8 8 17 22 22 22 22
15 14 13 12 11 8 6 4 4 4 3 3 3 2 8 9 10 10 7 7 9 9 8 6 6 10 12 11 10 9 9 9 10 9 11 11 11 9 7 16 21 21 21
15 14 13 11 12 10 6 5 3 3 3 3 4 3 4 6 9 10 7 8 9 7 6 5 9 7 9 13 11 9 9 8 8 7 9 9 9 10 9 10 8 10 19
15 15 16 14 13 11 6 4 3 3 2 2 3 6 5 6 6 9 7 9 9 8 9 9 10 13 9 13 10 9 8 8 8 7 6 7 8 8 9 9 7 6 7
18 17 17 16 15 13 9 5 3 4 2 2 4 6 8 7 6 8 10 8 9 7 10 11 11 8 8 11 7 7 5 4 5 5 5 6 7 6 8 10 10 9 7
18 19 17 16 15 13 12 8 6 6 4 3 4 4 6 7 10 8 10 9 8 8 10 13 12 10 10 8 10 1 5 4 8 4 5 5 6 5 6 7 8 9 9
16 13 15 15 14 13 14 11 12 7 6 5 6 5 6 8 9 8 9 10 9 7 10 9 7 7 9 9 5 3 2 7 5 6 4 5 5 5 5 5 6 8 8
13 13 14 15 14 12 12 10 9 8 4 7 6 9 8 7 6 7 7 7 7 6 8 10 9 7 9 7 4 3 3 3 2 5 7 6 4 4 4 4 5 6 7
11 12 14 15 15 12 11 11 10 9 9 8 9 8 5 5 6 6 7 9 9 7 9 7 6 7 8 6 5 4 4 2 5 4 6 8 7 4 3 3 5 6 5
Wind_Direction
160 150 156 147 139 135 124 115 109 104 96 96 96 91 87 88 84 80 75 71 77 75 74 83 78 74 68 66 67 67 67 67 67 66 65 56 55 53 48 41 49 56 54
149 154 154 150 140 138 122 120 114 105 97 98 97 95 91 86 85 83 81 76 80 80 75 78 77 75 72 70 70 71 69 66 62 48 85 74 55 53 50 45 44 50 53
149 149 160 143 136 135 127 125 115 103 101 97 94 91 89 88 88 83 80 74 81 76 84 79 78 74 72 70 70 72 70 66 59 54 66 70 63 56 54 51 49 48 47
149 152 152 142 141 137 135 132 122 107 104 100 97 94 93 92 89 85 85 81 83 82 80 83 79 74 73 74 72 70 68 63 53 62 69 69 67 59 58 55 52 47 45
155 153 139 146 142 140 138 131 119 112 111 106 102 99 96 93 90 89 84 84 84 83 81 81 79 77 75 74 73 69 66 61 56 71 65 66 67 63 63 59 59 54 48
156 157 140 148 149 144 141 131 125 118 116 112 107 104 101 99 96 93 91 89 87 86 82 82 80 78 76 74 69 66 61 57 63 71 71 63 59 68 68 66 65 63 61
162 156 156 151 150 148 146 141 133 127 124 119 113 109 106 102 100 98 97 98 95 93 90 89 85 81 78 76 72 65 59 44 73 70 72 71 74 68 70 68 66 63 61
166 161 155 155 151 149 146 146 138 132 129 126 122 117 112 110 107 105 105 103 101 98 97 92 90 86 83 79 71 65 45 50 70 73 72 61 57 63 59 75 66 62 66
170 170 167 168 164 154 148 143 141 138 133 131 126 119 113 111 106 101 98 97 95 95 95 94 94 89 85 81 74 64 46 47 75 69 67 64 54 62 62 61 61 59 57
176 179 174 173 173 171 164 152 146 141 137 135 128 118 106 98 98 98 101 98 100 98 98 98 95 92 86 79 70 62 66 66 75 73 71 71 67 63 63 64 62 59 59
187 189 178 175 176 174 172 165 153 146 138 132 133 132 145 132 126 119 84 102 102 100 99 98 97 95 90 79 71 61 62 66 57 53 69 76 70 65 63 64 66 61 60
189 182 185 183 180 179 165 172 165 156 158 155 149 155 142 135 120 111 94 85 89 95 96 97 97 98 93 93 85 72 79 80 68 58 53 67 67 67 66 62 62 63 63
189 183 195 190 187 183 173 177 173 166 167 164 160 149 135 125 131 127 133 126 121 124 110 105 98 81 89 91 87 88 85 78 73 61 42 60 67 69 69 68 66 62 60
190 192 182 194 195 189 180 187 171 169 174 175 174 159 146 140 141 137 134 129 127 115 113 100 91 94 91 90 91 87 81 79 75 65 45 43 59 61 63 62 64 63 59
197 187 188 191 193 179 188 193 169 178 175 178 175 171 159 151 140 135 133 132 106 116 116 115 111 105 98 92 88 88 85 81 76 79 65 49 56 61 64 67 65 59 57
198 191 184 194 190 181 189 187 171 174 176 167 173 174 178 156 148 146 136 122 125 120 111 122 124 116 104 98 90 86 83 81 81 81 76 64 56 57 61 62 60 56 54
198 188 190 187 182 185 183 177 175 163 166 168 172 179 168 159 149 151 142 137 121 113 106 109 122 120 111 103 97 91 87 81 81 80 78 73 68 54 59 58 56 55 54
194 191 183 177 183 177 168 156 145 138 120 122 171 167 162 152 147 146 134 136 137 123 116 135 140 131 119 112 104 95 92 86 80 76 72 69 69 70 62 56 54 52 52
197 192 188 186 178 163 145 145 135 118 111 99 68 119 152 152 146 145 134 140 144 135 139 147 134 142 127 116 106 96 89 86 82 80 76 71 70 73 76 61 53 48 49
195 194 193 188 181 162 143 133 119 105 88 114 110 87 124 142 151 147 133 143 151 139 129 142 143 133 131 125 114 98 92 88 82 79 80 75 73 75 70 55 54 55 48
199 194 193 187 184 175 155 159 169 157 149 117 133 124 126 128 148 147 143 146 163 156 147 145 141 139 138 132 121 104 89 84 83 79 81 80 77 77 72 55 51 48 49
196 198 195 195 186 190 185 166 144 145 134 135 144 144 139 157 160 152 150 158 147 147 142 156 152 147 140 169 146 139 148 129 85 78 82 82 83 83 71 57 53 52 51
201 198 198 194 190 191 185 156 123 95 94 140 158 148 158 162 167 160 151 155 155 161 164 166 170 171 159 186 206 230 160 160 143 133 97 98 90 87 83 68 59 50 47
206 197 198 193 192 190 179 181 177 172 171 180 168 158 165 159 168 154 153 161 166 172 181 172 171 191 170 174 173 235 318 121 173 154 145 105 90 83 79 65 59 54 49
196 193 195 192 190 182 182 183 183 181 163 155 156 160 163 157 143 146 146 137 161 178 176 178 164 187 185 177 166 152 147 141 146 158 144 149 135 110 84 67 50 48 40
187 196 194 192 187 180 178 183 187 176 170 165 168 166 158 149 160 146 140 155 168 160 160 171 157 181 187 176 155 143 166 179 151 143 117 149 137 145 131 96 61 43 31